| time (UTC) | temp F | wind direction | speed MPH | gust MPH | rain 1hr in | rain 24hr in | rain mn in | humidity % | barometer mb |
| 20260906091055 | 74 | 0 | 0.0 | 0.0 | 0.00 | 0.04 | 0.00 | 89 | 1012.5 |
| 20260906090555 | 74 | 0 | 0.0 | 0.0 | 0.00 | 0.04 | 0.00 | 86 | 1012.5 |
| 20260906085054 | 75 | 155 | 0.0 | 1.0 | 0.00 | 0.04 | 0.00 | 87 | 1012.7 |
| 20260906082054 | 75 | 41 | 1.0 | 5.0 | 0.00 | 0.04 | 0.00 | 88 | 1012.8 |
| 20260906073054 | 74 | 0 | 0.0 | 0.0 | 0.00 | 0.04 | 0.00 | 93 | 1011.9 |
| 20260906072554 | 74 | 203 | 0.0 | 1.0 | 0.00 | 0.04 | 0.00 | 94 | 1012.1 |
| 20260906071054 | 74 | 242 | 0.0 | 2.0 | 0.00 | 0.04 | 0.00 | 96 | 1012.4 |
| 20260906070055 | 74 | 0 | 0.0 | 0.0 | 0.00 | 0.04 | 0.00 | 96 | 1012.3 |
| 20260906064554 | 74 | 177 | 0.0 | 1.0 | 0.00 | 0.04 | 0.00 | 96 | 1012.4 |
| 20260906062555 | 74 | 0 | 0.0 | 0.0 | 0.00 | 0.04 | 0.00 | 96 | 1012.6 |
| 20260906061554 | 74 | 178 | 0.0 | 1.0 | 0.00 | 0.04 | 0.00 | 96 | 1012.5 |
| 20260906060554 | 73 | 172 | 0.0 | 1.0 | 0.00 | 0.04 | 0.00 | 96 | 1012.3 |
| 20260906060054 | 73 | 0 | 0.0 | 0.0 | 0.00 | 0.04 | 0.00 | 96 | 1012.4 |
| 20260906055054 | 73 | 0 | 0.0 | 0.0 | 0.00 | 0.04 | 0.00 | 96 | 1012.4 |
| 20260906054054 | 73 | 124 | 0.0 | 1.0 | 0.00 | 0.04 | 0.00 | 95 | 1012.5 |
| 20260906053554 | 73 | 124 | 0.0 | 1.0 | 0.00 | 0.04 | 0.00 | 95 | 1012.5 |
| 20260906053055 | 73 | 0 | 0.0 | 0.0 | 0.00 | 0.04 | 0.00 | 95 | 1012.6 |
| 20260906052555 | 73 | 0 | 0.0 | 0.0 | 0.00 | 0.04 | 0.00 | 95 | 1012.6 |
| 20260906052054 | 74 | 0 | 0.0 | 0.0 | 0.00 | 0.04 | 0.00 | 95 | 1012.5 |
| 20260906050053 | 74 | 0 | 0.0 | 0.0 | 0.00 | 0.04 | 0.04 | 94 | 1012.7 |
| 20260906045054 | 74 | 124 | 0.0 | 1.0 | 0.00 | 0.04 | 0.04 | 94 | 1012.5 |
| 20260906044053 | 74 | 124 | 0.0 | 1.0 | 0.00 | 0.04 | 0.04 | 94 | 1012.8 |
| 20260906042554 | 74 | 124 | 0.0 | 1.0 | 0.00 | 0.04 | 0.04 | 94 | 1012.6 |
| 20260906042053 | 74 | 124 | 0.0 | 1.0 | 0.00 | 0.04 | 0.04 | 94 | 1012.7 |
| 20260906041055 | 75 | 111 | 0.0 | 2.0 | 0.00 | 0.04 | 0.04 | 93 | 1012.7 |
| 20260906035054 | 75 | 210 | 0.0 | 1.0 | 0.00 | 0.04 | 0.04 | 94 | 1012.9 |
| 20260906034054 | 75 | 198 | 0.0 | 2.0 | 0.00 | 0.04 | 0.04 | 94 | 1012.7 |
| 20260906033555 | 75 | 185 | 1.0 | 2.0 | 0.02 | 0.04 | 0.04 | 94 | 1012.6 |
| 20260906033055 | 75 | 180 | 0.0 | 1.0 | 0.04 | 0.04 | 0.04 | 94 | 1012.5 |
| 20260906032555 | 75 | 0 | 0.0 | 0.0 | 0.04 | 0.04 | 0.04 | 94 | 1012.5 |
| 20260906032054 | 75 | 0 | 0.0 | 0.0 | 0.04 | 0.04 | 0.04 | 93 | 1012.4 |
| 20260906031555 | 75 | 0 | 0.0 | 0.0 | 0.04 | 0.04 | 0.04 | 93 | 1012.3 |
| 20260906031055 | 75 | 0 | 0.0 | 0.0 | 0.04 | 0.04 | 0.04 | 93 | 1012.3 |
| 20260906030055 | 75 | 0 | 0.0 | 0.0 | 0.04 | 0.04 | 0.04 | 91 | 1012.4 |
| 20260906025055 | 76 | 0 | 0.0 | 0.0 | 0.04 | 0.04 | 0.04 | 89 | 1012.3 |
| 20260906024556 | 76 | 0 | 0.0 | 0.0 | 0.04 | 0.04 | 0.04 | 87 | 1012.1 |
| 20260906023555 | 78 | 178 | 0.0 | 1.0 | 0.00 | 0.00 | 0.00 | 83 | 1012.0 |
| 20260906022554 | 78 | 165 | 0.0 | 2.0 | 0.00 | 0.00 | 0.00 | 81 | 1012.0 |
| 20260906022054 | 78 | 0 | 0.0 | 0.0 | 0.00 | 0.00 | 0.00 | 80 | 1012.0 |
| 20260906021055 | 79 | 119 | 0.0 | 1.0 | 0.00 | 0.00 | 0.00 | 80 | 1011.9 |
| 20260906020554 | 80 | 119 | 0.0 | 1.0 | 0.00 | 0.00 | 0.00 | 80 | 1011.7 |
| 20260906020055 | 80 | 120 | 0.0 | 1.0 | 0.00 | 0.00 | 0.00 | 78 | 1011.7 |
| 20260906015054 | 81 | 0 | 0.0 | 0.0 | 0.00 | 0.00 | 0.00 | 74 | 1011.6 |
| 20260906014555 | 81 | 119 | 0.0 | 1.0 | 0.00 | 0.00 | 0.00 | 75 | 1011.6 |
| 20260906014054 | 81 | 119 | 0.0 | 1.0 | 0.00 | 0.00 | 0.00 | 75 | 1011.4 |
| 20260906013054 | 82 | 119 | 0.0 | 1.0 | 0.00 | 0.00 | 0.00 | 74 | 1010.9 |
| 20260906012555 | 82 | 122 | 0.0 | 1.0 | 0.00 | 0.00 | 0.00 | 74 | 1010.8 |
| 20260906011555 | 81 | 73 | 0.0 | 2.0 | 0.00 | 0.00 | 0.00 | 76 | 1010.6 |
| 20260906011054 | 80 | 85 | 2.0 | 6.0 | 0.00 | 0.00 | 0.00 | 81 | 1010.4 |
| 20260906010555 | 80 | 88 | 1.0 | 3.0 | 0.00 | 0.00 | 0.00 | 84 | 1010.3 |
| 20260906010054 | 80 | 145 | 0.0 | 2.0 | 0.00 | 0.00 | 0.00 | 82 | 1010.1 |
| 20260906005056 | 82 | 0 | 0.0 | 0.0 | 0.00 | 0.00 | 0.00 | 79 | 1010.1 |
| 20260906004054 | 81 | 125 | 0.0 | 1.0 | 0.00 | 0.00 | 0.00 | 80 | 1010.3 |
| 20260906003054 | 82 | 125 | 0.0 | 1.0 | 0.00 | 0.00 | 0.00 | 78 | 1010.2 |
| 20260906002554 | 83 | 124 | 0.0 | 1.0 | 0.00 | 0.00 | 0.00 | 76 | 1010.4 |
| 20260906001054 | 85 | 126 | 0.0 | 1.0 | 0.00 | 0.00 | 0.00 | 74 | 1010.2 |
| 20260906000555 | 85 | 125 | 0.0 | 1.0 | 0.00 | 0.00 | 0.00 | 71 | 1010.3 |
| 20260906000054 | 86 | 125 | 0.0 | 1.0 | 0.00 | 0.00 | 0.00 | 71 | 1010.4 |
| 20260905235554 | 86 | 123 | 0.0 | 1.0 | 0.00 | 0.00 | 0.00 | 71 | 1010.4 |
| 20260905235055 | 86 | 105 | 1.0 | 2.0 | 0.00 | 0.00 | 0.00 | 72 | 1010.4 |
| 20260905233554 | 87 | 0 | 0.0 | 0.0 | 0.00 | 0.00 | 0.00 | 70 | 1010.2 |
| 20260905232554 | 88 | 0 | 0.0 | 0.0 | 0.00 | 0.00 | 0.00 | 70 | 1010.0 |
| 20260905232054 | 89 | 208 | 0.0 | 1.0 | 0.00 | 0.00 | 0.00 | 65 | 1009.8 |
| 20260905231554 | 90 | 0 | 0.0 | 0.0 | 0.00 | 0.00 | 0.00 | 63 | 1009.6 |
| 20260905231054 | 91 | 0 | 0.0 | 0.0 | 0.00 | 0.00 | 0.00 | 62 | 1009.5 |
| 20260905230554 | 91 | 204 | 0.0 | 2.0 | 0.00 | 0.00 | 0.00 | 60 | 1009.5 |
| 20260905230054 | 93 | 197 | 0.0 | 1.0 | 0.00 | 0.00 | 0.00 | 57 | 1009.5 |
| 20260905225557 | 94 | 180 | 0.0 | 1.0 | 0.00 | 0.00 | 0.00 | 52 | 1009.5 |
| 20260905225054 | 94 | 181 | 0.0 | 1.0 | 0.00 | 0.00 | 0.00 | 50 | 1009.4 |
| 20260905224554 | 94 | 224 | 0.0 | 1.0 | 0.00 | 0.00 | 0.00 | 53 | 1009.4 |
| 20260905223054 | 95 | 221 | 1.0 | 3.0 | 0.00 | 0.00 | 0.00 | 51 | 1009.4 |
| 20260905222055 | 96 | 205 | 0.0 | 2.0 | 0.00 | 0.00 | 0.00 | 49 | 1009.5 |
| 20260905215557 | 95 | 239 | 2.0 | 4.0 | 0.00 | 0.00 | 0.00 | 49 | 1009.6 |
| 20260905215054 | 95 | 227 | 1.0 | 4.0 | 0.00 | 0.00 | 0.00 | 50 | 1009.7 |
| 20260905214554 | 96 | 252 | 1.0 | 4.0 | 0.00 | 0.00 | 0.00 | 49 | 1009.7 |
| 20260905214054 | 96 | 225 | 1.0 | 5.0 | 0.00 | 0.00 | 0.00 | 48 | 1009.5 |
| 20260905213554 | 95 | 222 | 1.0 | 3.0 | 0.00 | 0.00 | 0.00 | 48 | 1009.6 |
| 20260905212555 | 95 | 240 | 2.0 | 3.0 | 0.00 | 0.00 | 0.00 | 49 | 1009.7 |
| 20260905212055 | 96 | 239 | 2.0 | 4.0 | 0.00 | 0.00 | 0.00 | 49 | 1009.7 |
| 20260905211054 | 97 | 218 | 0.0 | 2.0 | 0.00 | 0.00 | 0.00 | 48 | 1009.6 |
| 20260905210554 | 97 | 221 | 1.0 | 3.0 | 0.00 | 0.00 | 0.00 | 49 | 1009.5 |
| 20260905210054 | 96 | 215 | 0.0 | 2.0 | 0.00 | 0.00 | 0.00 | 48 | 1009.6 |
| 20260905205555 | 96 | 231 | 1.0 | 3.0 | 0.00 | 0.00 | 0.00 | 46 | 1009.7 |
| 20260905204055 | 96 | 298 | 1.0 | 4.0 | 0.00 | 0.00 | 0.00 | 47 | 1009.9 |
| 20260905203054 | 96 | 228 | 2.0 | 5.0 | 0.00 | 0.00 | 0.00 | 48 | 1010.1 |
| 20260905202555 | 95 | 244 | 1.0 | 6.0 | 0.00 | 0.00 | 0.00 | 48 | 1010.1 |
| 20260905202054 | 95 | 84 | 2.0 | 4.0 | 0.00 | 0.00 | 0.00 | 47 | 1010.3 |
| 20260905201554 | 96 | 80 | 1.0 | 5.0 | 0.00 | 0.00 | 0.00 | 47 | 1010.4 |
| 20260905201054 | 96 | 305 | 1.0 | 3.0 | 0.00 | 0.00 | 0.00 | 46 | 1010.4 |
| 20260905200555 | 96 | 276 | 2.0 | 5.0 | 0.00 | 0.00 | 0.00 | 45 | 1010.5 |
| 20260905200054 | 96 | 217 | 1.0 | 3.0 | 0.00 | 0.00 | 0.00 | 47 | 1010.6 |
| 20260905195554 | 97 | 62 | 1.0 | 3.0 | 0.00 | 0.00 | 0.00 | 47 | 1010.7 |
| 20260905194054 | 95 | 303 | 2.0 | 5.0 | 0.00 | 0.00 | 0.00 | 46 | 1010.7 |
| 20260905192554 | 95 | 80 | 2.0 | 6.0 | 0.00 | 0.00 | 0.00 | 47 | 1010.9 |
| 20260905192054 | 96 | 223 | 1.0 | 4.0 | 0.00 | 0.00 | 0.00 | 46 | 1011.0 |
| 20260905191554 | 94 | 35 | 1.0 | 3.0 | 0.00 | 0.00 | 0.00 | 48 | 1011.1 |
| 20260905190554 | 96 | 155 | 2.0 | 7.0 | 0.00 | 0.00 | 0.00 | 48 | 1011.3 |
| 20260905190054 | 96 | 219 | 1.0 | 3.0 | 0.00 | 0.00 | 0.00 | 46 | 1011.3 |
| 20260905185555 | 96 | 304 | 1.0 | 4.0 | 0.00 | 0.00 | 0.00 | 47 | 1011.4 |
| 20260905184553 | 94 | 96 | 1.0 | 4.0 | 0.00 | 0.00 | 0.00 | 48 | 1011.6 |
| 20260905184055 | 94 | 102 | 1.0 | 5.0 | 0.00 | 0.00 | 0.00 | 48 | 1011.7 |
| 20260905183554 | 94 | 106 | 1.0 | 2.0 | 0.00 | 0.00 | 0.00 | 50 | 1011.8 |
| 20260905183054 | 95 | 120 | 1.0 | 4.0 | 0.00 | 0.00 | 0.00 | 49 | 1011.8 |
| 20260905182554 | 95 | 115 | 1.0 | 4.0 | 0.00 | 0.00 | 0.00 | 49 | 1011.9 |
| 20260905182055 | 95 | 278 | 1.0 | 3.0 | 0.00 | 0.00 | 0.00 | 48 | 1011.9 |
| 20260905181555 | 93 | 197 | 1.0 | 2.0 | 0.00 | 0.00 | 0.00 | 50 | 1012.0 |
| 20260905180555 | 94 | 39 | 2.0 | 5.0 | 0.00 | 0.00 | 0.00 | 50 | 1012.1 |
| 20260905180054 | 94 | 2 | 1.0 | 3.0 | 0.00 | 0.00 | 0.00 | 48 | 1012.2 |
| 20260905172555 | 93 | 83 | 2.0 | 6.0 | 0.00 | 0.00 | 0.00 | 53 | 1012.5 |
| 20260905172054 | 92 | 48 | 1.0 | 4.0 | 0.00 | 0.00 | 0.00 | 53 | 1012.6 |
| 20260905171556 | 92 | 102 | 2.0 | 4.0 | 0.00 | 0.00 | 0.00 | 59 | 1012.6 |
| 20260905171055 | 92 | 82 | 2.0 | 4.0 | 0.00 | 0.00 | 0.00 | 58 | 1012.7 |
| 20260905170054 | 92 | 86 | 2.0 | 5.0 | 0.00 | 0.00 | 0.00 | 57 | 1012.8 |
| 20260905164554 | 92 | 21 | 2.0 | 6.0 | 0.00 | 0.00 | 0.00 | 58 | 1012.9 |
| 20260905164056 | 92 | 72 | 1.0 | 3.0 | 0.00 | 0.00 | 0.00 | 59 | 1012.9 |
| 20260905161055 | 91 | 104 | 1.0 | 4.0 | 0.00 | 0.00 | 0.00 | 59 | 1013.2 |
| 20260905160556 | 91 | 55 | 1.0 | 4.0 | 0.00 | 0.00 | 0.00 | 58 | 1013.4 |
| 20260905160055 | 91 | 11 | 2.0 | 5.0 | 0.00 | 0.00 | 0.00 | 59 | 1013.4 |
| 20260905155555 | 90 | 283 | 1.0 | 4.0 | 0.00 | 0.00 | 0.00 | 60 | 1013.4 |
| 20260905154555 | 91 | 339 | 2.0 | 5.0 | 0.00 | 0.00 | 0.00 | 60 | 1013.4 |
| 20260905154056 | 92 | 61 | 1.0 | 3.0 | 0.00 | 0.00 | 0.00 | 61 | 1013.5 |
| 20260905153555 | 92 | 3 | 1.0 | 3.0 | 0.00 | 0.00 | 0.00 | 61 | 1013.4 |
| 20260905153055 | 91 | 173 | 0.0 | 2.0 | 0.00 | 0.00 | 0.00 | 61 | 1013.4 |
| 20260905152555 | 90 | 216 | 1.0 | 4.0 | 0.00 | 0.00 | 0.00 | 64 | 1013.5 |
| 20260905152054 | 89 | 96 | 1.0 | 3.0 | 0.00 | 0.00 | 0.00 | 64 | 1013.5 |
| 20260905151054 | 89 | 222 | 0.0 | 3.0 | 0.00 | 0.00 | 0.00 | 64 | 1013.5 |
| 20260905150555 | 89 | 111 | 0.0 | 2.0 | 0.00 | 0.00 | 0.00 | 67 | 1013.4 |
| 20260905150055 | 88 | 77 | 0.0 | 4.0 | 0.00 | 0.00 | 0.00 | 68 | 1013.6 |
| 20260905142054 | 87 | 249 | 0.0 | 3.0 | 0.00 | 0.00 | 0.00 | 71 | 1013.9 |
| 20260905140554 | 85 | 205 | 0.0 | 2.0 | 0.00 | 0.00 | 0.00 | 76 | 1013.9 |
| 20260905135055 | 83 | 214 | 0.0 | 1.0 | 0.00 | 0.00 | 0.00 | 79 | 1014.3 |
| 20260905134555 | 83 | 265 | 1.0 | 2.0 | 0.00 | 0.00 | 0.00 | 77 | 1014.4 |
| 20260905134054 | 83 | 178 | 1.0 | 2.0 | 0.00 | 0.00 | 0.00 | 77 | 1014.4 |
| 20260905133056 | 82 | 170 | 0.0 | 1.0 | 0.00 | 0.00 | 0.00 | 80 | 1014.5 |
| 20260905132554 | 82 | 172 | 0.0 | 1.0 | 0.00 | 0.00 | 0.00 | 80 | 1014.5 |
| 20260905132055 | 81 | 171 | 0.0 | 1.0 | 0.00 | 0.00 | 0.00 | 82 | 1014.6 |
| 20260905124555 | 76 | 0 | 0.0 | 0.0 | 0.00 | 0.00 | 0.00 | 93 | 1014.9 |
| 20260905124055 | 76 | 0 | 0.0 | 0.0 | 0.00 | 0.00 | 0.00 | 96 | 1014.9 |
| 20260905122555 | 73 | 206 | 0.0 | 1.0 | 0.00 | 0.00 | 0.00 | 98 | 1015.0 |
| 20260905120054 | 71 | 0 | 0.0 | 0.0 | 0.00 | 0.00 | 0.00 | 98 | 1014.8 |
| 20260905115555 | 71 | 0 | 0.0 | 0.0 | 0.00 | 0.00 | 0.00 | 98 | 1014.7 |
| 20260905114055 | 71 | 0 | 0.0 | 0.0 | 0.00 | 0.00 | 0.00 | 97 | 1014.7 |
| 20260905112554 | 71 | 0 | 0.0 | 0.0 | 0.00 | 0.00 | 0.00 | 97 | 1014.4 |
| 20260905111554 | 71 | 0 | 0.0 | 0.0 | 0.00 | 0.00 | 0.00 | 97 | 1014.2 |
| 20260905105555 | 71 | 0 | 0.0 | 0.0 | 0.00 | 0.00 | 0.00 | 97 | 1014.1 |
| 20260905105058 | 71 | 0 | 0.0 | 0.0 | 0.00 | 0.00 | 0.00 | 97 | 1014.0 |
| 20260905104555 | 72 | 0 | 0.0 | 0.0 | 0.00 | 0.00 | 0.00 | 97 | 1014.1 |
| 20260905104054 | 72 | 0 | 0.0 | 0.0 | 0.00 | 0.00 | 0.00 | 97 | 1014.1 |
| 20260905101555 | 72 | 207 | 0.0 | 1.0 | 0.00 | 0.00 | 0.00 | 97 | 1014.0 |
| 20260905095554 | 72 | 0 | 0.0 | 0.0 | 0.00 | 0.00 | 0.00 | 97 | 1014.0 |
| 20260905093555 | 72 | 0 | 0.0 | 0.0 | 0.00 | 0.00 | 0.00 | 97 | 1013.8 |
| 20260905093055 | 72 | 0 | 0.0 | 0.0 | 0.00 | 0.00 | 0.00 | 97 | 1013.8 |
| 20260905092555 | 71 | 0 | 0.0 | 0.0 | 0.00 | 0.00 | 0.00 | 97 | 1013.8 |
| 20260905092054 | 72 | 0 | 0.0 | 0.0 | 0.00 | 0.00 | 0.00 | 97 | 1013.7 |
| 20260905091554 | 72 | 0 | 0.0 | 0.0 | 0.00 | 0.00 | 0.00 | 97 | 1013.8 |